Location: Andershausen
(51.8462°N, 9.8595°E)
Time: 06:48:20
(UTC+00:00)

Cosmos 1656 Rocket - Pass Details

Date: 18 November 2025
Orbit: 791 x 846 km, 71.1° (Epoch: 11 December)

Event Time Altitude Azimuth Distance (km) Brightness Sun altitude
Rises 18:00:43 0° 194° (SSW) 3,333 7.0 -23.5°
Reaches altitude 10° 18:03:09 10° 190° (S) 2,414 6.2 -23.9°
Enters shadow 18:08:00 54° 138° (SE) 999 3.8 -24.7°
